Temp
68 69 70 70 69 68 67 64 64 62 62 63 63 64 63 63 64 65 64 57 60 65 68 69 69 70 70 70 70 69 69 68 67 67 67 66 67 66 68 68 68 68 67
69 68 68 68 67 67 66 64 63 62 62 62 61 62 62 62 62 62 64 60 59 62 66 68 68 69 69 69 69 68 68 67 65 65 66 65 65 65 66 66 67 66 66
69 68 67 66 66 65 64 63 63 63 62 62 61 60 60 60 61 61 62 63 61 57 61 64 67 68 68 68 68 69 68 66 65 66 64 64 65 65 66 66 66 65 65
69 67 66 65 65 63 62 61 61 60 61 61 60 60 60 59 59 60 60 61 61 61 58 59 62 64 65 65 66 66 66 65 64 63 63 64 64 64 64 64 64 64 65
67 66 65 64 63 61 60 61 60 60 59 60 60 59 59 58 57 60 58 58 57 59 58 53 55 57 60 62 64 65 64 63 63 62 62 62 62 62 62 62 63 63 63
65 65 64 63 61 59 59 59 58 60 59 59 59 57 57 58 57 57 56 57 56 56 57 56 55 55 58 62 63 64 64 63 60 60 60 59 60 60 60 61 61 62 62
64 63 63 62 59 57 58 58 57 56 57 57 54 54 54 55 55 56 56 55 54 55 55 55 54 55 56 60 62 63 62 60 58 57 57 57 57 58 58 59 60 60 61
63 62 61 60 58 57 57 56 55 53 55 56 54 53 48 50 53 55 54 54 53 53 52 53 53 53 54 54 55 56 56 56 55 55 55 55 56 56 57 58 58 59 60
62 59 60 60 57 57 55 55 54 53 51 52 56 56 49 49 48 52 52 52 52 52 52 51 51 52 53 51 51 49 50 51 51 52 52 52 54 55 56 57 57 58 58
61 60 58 59 56 55 56 53 55 54 53 48 51 54 52 54 49 43 50 50 51 51 50 50 50 50 52 50 46 46 47 47 47 48 49 50 51 52 54 55 55 56 57
58 58 57 57 56 55 55 54 53 53 55 52 51 49 48 51 52 52 43 44 48 49 50 50 50 49 51 49 47 43 44 45 45 45 46 47 48 50 51 53 54 55 55
57 55 55 54 55 55 54 53 52 52 53 54 53 51 51 50 48 50 50 44 43 45 47 48 48 49 49 48 45 41 42 42 43 43 44 44 46 47 48 50 52 52 53
55 54 54 52 52 53 54 54 51 50 51 51 52 53 53 54 53 53 52 46 45 44 44 46 47 47 48 46 41 40 39 39 40 41 42 43 44 45 46 48 49 50 50
54 55 53 52 52 52 53 53 50 49 50 50 51 51 51 51 50 51 50 44 42 41 43 42 46 45 45 44 42 39 40 38 38 40 40 41 42 43 45 46 46 47 48
51 51 51 50 50 50 49 50 48 47 48 48 49 49 48 49 47 48 49 49 44 39 39 43 40 44 44 41 39 39 41 39 38 39 39 40 41 42 44 44 45 46 47
47 46 46 47 47 47 47 47 46 47 46 46 47 47 47 47 46 46 45 45 46 44 40 43 43 42 42 42 39 39 40 37 37 38 38 39 40 41 42 43 43 44 45
45 45 45 44 44 44 45 45 44 45 44 44 45 45 45 46 45 45 43 43 42 44 42 38 43 41 40 38 36 36 38 37 38 38 38 38 39 41 41 41 42 42 43
42 43 43 42 42 42 43 43 42 41 43 42 43 43 44 43 43 44 43 42 42 42 40 34 38 37 37 38 36 34 34 37 37 40 39 38 39 40 40 40 40 41 41
39 40 41 41 41 41 41 42 42 42 42 43 43 43 43 42 39 43 42 41 40 37 39 36 33 36 34 36 35 34 34 33 36 38 40 38 39 39 39 39 40 40 40
38 38 38 39 39 40 40 41 40 40 40 41 41 42 42 42 40 41 39 39 38 37 36 35 32 33 33 33 33 31 30 33 33 36 37 38 38 38 39 39 39 39 38
37 38 37 36 37 38 38 38 39 38 38 39 40 40 42 42 42 42 40 39 38 37 35 35 33 32 31 28 29 31 31 32 33 35 34 34 33 33 35 39 38 38 39
36 36 36 36 35 37 39 39 37 36 37 37 37 40 40 39 40 41 42 44 41 37 34 35 35 33 32 32 31 31 31 30 27 35 32 32 34 33 34 34 39 39 38
33 34 34 35 35 36 39 39 38 34 33 36 37 37 38 39 38 39 40 42 42 43 43 39 36 36 33 33 32 31 31 31 31 32 32 28 31 31 35 36 39 39 38
29 30 31 33 34 35 38 39 38 36 34 35 37 37 37 38 38 37 36 36 37 37 40 40 40 39 38 36 35 34 32 31 30 30 31 24 30 29 31 33 38 38 37
26 26 27 28 29 31 36 38 37 35 34 34 36 37 37 37 39 40 35 34 34 35 38 41 39 40 40 39 37 31 27 26 23 25 29 27 28 28 29 29 32 37 37
22 24 24 25 26 27 33 36 36 34 33 34 35 36 36 37 39 40 34 33 31 32 31 33 32 36 37 36 37 32 30 25 23 23 28 24 26 25 22 28 30 31 31
MSLP
1015.93 1016.31 1016.57 1016.97 1017.42 1018.05 1018.41 1019.10 1019.35 1019.75 1019.91 1020.07 1020.28 1020.33 1020.42 1020.53 1020.51 1020.45 1020.64 1021.06 1020.81 1020.43 1020.26 1020.20 1020.12 1020.05 1020.05 1020.07 1019.98 1020.19 1020.29 1020.60 1020.89 1020.73 1020.70 1020.74 1020.40 1020.35 1020.17 1020.24 1020.16 1020.16 1020.21
1015.18 1015.62 1016.09 1016.57 1017.18 1017.66 1018.25 1018.83 1019.14 1019.46 1019.67 1020.02 1020.37 1020.53 1020.68 1020.77 1020.86 1020.96 1020.90 1021.26 1021.15 1020.85 1020.56 1020.49 1020.36 1020.28 1020.23 1020.29 1020.44 1020.61 1020.67 1020.85 1021.17 1021.06 1020.91 1021.08 1020.84 1020.68 1020.67 1020.43 1020.56 1020.59 1020.55
1014.73 1015.20 1015.78 1016.33 1016.84 1017.57 1018.13 1018.50 1018.97 1019.39 1019.70 1019.92 1020.24 1020.63 1020.90 1021.09 1021.09 1021.18 1021.14 1021.01 1021.31 1021.33 1021.13 1020.97 1020.68 1020.40 1020.46 1020.60 1020.79 1020.62 1020.80 1021.24 1021.17 1021.13 1021.29 1021.26 1021.09 1020.77 1020.76 1020.69 1020.87 1020.88 1020.77
1014.35 1014.80 1015.22 1015.73 1016.25 1017.13 1017.83 1018.30 1018.70 1019.13 1019.53 1019.92 1020.24 1020.55 1020.73 1021.06 1021.34 1021.29 1021.26 1021.20 1021.29 1021.37 1021.62 1021.61 1021.28 1021.19 1021.22 1021.19 1021.14 1021.01 1021.24 1021.55 1021.58 1021.66 1021.65 1021.43 1021.34 1021.15 1021.14 1021.13 1021.10 1021.05 1020.87
1014.05 1014.39 1014.84 1015.36 1015.93 1016.68 1017.16 1017.55 1018.12 1018.57 1019.08 1019.57 1019.98 1020.42 1020.70 1021.01 1021.29 1021.25 1021.48 1021.57 1021.76 1021.72 1021.84 1022.28 1022.10 1022.02 1021.94 1021.66 1021.48 1021.35 1021.52 1021.79 1021.93 1021.90 1021.96 1021.96 1021.77 1021.68 1021.56 1021.50 1021.49 1021.34 1021.19
1014.19 1014.53 1014.90 1015.42 1016.20 1016.80 1017.07 1017.39 1017.80 1018.25 1018.62 1019.07 1019.64 1020.28 1020.67 1020.96 1021.28 1021.35 1021.52 1021.74 1021.94 1022.17 1022.08 1022.26 1022.36 1022.44 1022.01 1021.67 1021.61 1021.48 1021.62 1021.88 1022.34 1022.45 1022.43 1022.37 1022.19 1022.09 1021.93 1021.86 1021.75 1021.64 1021.45
1013.97 1014.49 1014.74 1015.17 1015.90 1016.54 1016.97 1017.37 1017.86 1018.24 1018.63 1019.09 1019.81 1020.51 1020.83 1021.05 1021.09 1021.17 1021.31 1021.57 1022.10 1022.26 1022.40 1022.55 1022.61 1022.47 1022.36 1022.08 1021.75 1021.66 1021.96 1022.40 1022.70 1022.78 1022.69 1022.64 1022.57 1022.41 1022.29 1022.23 1022.06 1021.78 1021.60
1013.11 1013.71 1014.36 1014.72 1015.42 1016.14 1016.74 1017.16 1017.59 1018.24 1018.58 1018.76 1018.79 1019.40 1020.19 1020.96 1020.96 1021.05 1021.21 1021.41 1021.78 1022.21 1022.47 1022.56 1022.69 1022.73 1022.61 1022.58 1022.63 1022.74 1022.77 1023.02 1023.18 1023.08 1022.98 1022.89 1022.75 1022.56 1022.46 1022.32 1022.17 1021.98 1021.73
1013.30 1013.80 1014.03 1014.22 1014.61 1015.01 1015.54 1016.43 1016.93 1017.25 1017.65 1018.48 1018.11 1017.91 1018.89 1019.08 1020.15 1020.87 1021.22 1021.46 1021.72 1021.97 1022.15 1022.49 1022.69 1022.85 1022.67 1022.99 1023.24 1023.78 1023.67 1023.64 1023.72 1023.42 1023.36 1023.20 1022.84 1022.69 1022.62 1022.58 1022.43 1022.18 1021.92
1013.02 1013.42 1013.94 1014.09 1014.20 1014.34 1014.73 1015.39 1016.19 1016.75 1017.11 1017.54 1018.29 1017.88 1017.96 1017.81 1018.68 1020.44 1021.01 1021.26 1021.48 1021.49 1021.64 1022.08 1022.46 1022.67 1022.59 1022.83 1023.46 1023.80 1023.90 1023.97 1023.91 1023.80 1023.65 1023.46 1023.20 1022.94 1022.82 1022.79 1022.61 1022.43 1022.18
1013.15 1013.17 1013.54 1013.72 1013.97 1014.26 1013.99 1014.26 1014.87 1015.62 1016.30 1016.77 1016.94 1017.41 1017.94 1017.84 1017.60 1017.77 1019.49 1020.54 1021.21 1021.10 1021.17 1021.49 1022.02 1022.53 1022.57 1022.98 1023.35 1023.91 1023.88 1023.77 1023.73 1023.68 1023.57 1023.52 1023.33 1023.22 1023.10 1023.03 1022.81 1022.62 1022.37
1012.48 1013.12 1013.24 1013.60 1013.89 1014.06 1014.20 1014.26 1014.37 1014.52 1014.70 1015.39 1016.31 1016.69 1016.70 1016.92 1017.03 1017.10 1017.49 1019.21 1019.91 1020.51 1020.86 1021.23 1021.54 1021.91 1022.29 1022.62 1023.14 1023.75 1023.85 1023.81 1023.66 1023.54 1023.44 1023.37 1023.27 1023.21 1023.16 1022.96 1022.92 1022.85 1022.79
1012.77 1012.66 1013.09 1013.36 1013.50 1013.72 1013.97 1014.06 1014.24 1014.31 1014.40 1014.53 1014.85 1015.44 1016.06 1016.26 1016.24 1016.28 1016.59 1018.04 1018.79 1019.97 1020.61 1020.94 1021.20 1021.49 1021.83 1022.15 1022.76 1023.05 1023.35 1023.58 1023.64 1023.62 1023.56 1023.46 1023.32 1023.11 1023.01 1023.02 1023.01 1023.20 1023.12
1012.99 1012.81 1012.83 1013.12 1013.35 1013.31 1013.53 1013.73 1013.76 1013.84 1014.12 1014.05 1014.23 1014.55 1014.95 1015.36 1015.71 1015.86 1016.12 1017.28 1018.53 1019.25 1019.62 1019.69 1020.40 1020.92 1021.44 1021.90 1022.34 1022.83 1022.85 1023.05 1023.24 1023.20 1023.31 1023.51 1023.38 1023.38 1023.17 1023.11 1023.07 1023.06 1022.92
1013.75 1013.25 1012.93 1012.87 1013.26 1013.21 1013.02 1013.24 1013.25 1013.57 1013.67 1013.61 1013.56 1013.78 1014.14 1014.52 1014.99 1015.37 1015.71 1015.97 1016.62 1018.06 1018.64 1018.96 1019.53 1020.10 1020.84 1021.53 1022.11 1022.53 1022.48 1022.87 1023.09 1023.19 1023.24 1023.36 1023.36 1023.28 1023.17 1023.03 1022.95 1022.96 1022.97
1014.00 1013.40 1012.97 1012.90 1013.00 1013.14 1012.89 1012.91 1013.00 1012.95 1013.24 1013.28 1013.24 1013.24 1013.51 1013.96 1014.45 1014.80 1015.11 1015.44 1015.79 1016.34 1017.08 1017.21 1018.11 1018.77 1019.78 1020.73 1021.40 1021.75 1021.98 1022.47 1022.66 1022.74 1023.08 1023.34 1023.28 1023.20 1023.13 1023.17 1023.13 1022.91 1022.77
1014.58 1013.46 1013.44 1013.01 1012.78 1012.98 1012.67 1012.57 1012.54 1012.72 1012.83 1012.77 1012.79 1012.77 1012.75 1013.12 1013.67 1014.13 1014.73 1015.11 1015.25 1015.74 1016.41 1017.22 1017.35 1018.16 1019.03 1019.80 1020.87 1021.40 1021.57 1021.79 1022.00 1022.13 1022.33 1022.66 1022.91 1023.02 1023.16 1023.06 1023.03 1022.73 1022.57
1014.70 1014.35 1013.71 1013.09 1012.41 1012.70 1012.74 1012.35 1012.19 1012.42 1012.17 1012.35 1012.36 1012.49 1012.21 1012.77 1013.01 1013.30 1013.74 1014.44 1014.83 1015.28 1015.93 1017.11 1017.42 1017.89 1018.10 1018.85 1019.90 1020.86 1021.35 1021.54 1021.65 1021.79 1022.05 1022.28 1022.30 1022.36 1022.75 1022.83 1022.62 1022.58 1022.32
1014.71 1014.15 1013.93 1013.49 1012.52 1011.95 1012.41 1012.57 1011.92 1011.79 1011.71 1011.65 1011.52 1011.53 1011.67 1011.79 1012.14 1012.51 1012.82 1013.44 1013.97 1014.78 1015.65 1016.19 1017.04 1017.65 1017.92 1018.10 1019.19 1020.28 1020.87 1021.44 1021.41 1021.48 1021.58 1022.08 1022.31 1021.99 1021.99 1022.04 1022.24 1022.21 1022.21
1014.74 1014.06 1013.71 1013.54 1012.89 1011.97 1011.75 1011.98 1011.84 1011.25 1011.31 1011.15 1010.68 1010.64 1010.87 1010.65 1010.56 1011.44 1012.08 1012.27 1012.78 1013.64 1014.76 1015.89 1016.60 1017.11 1017.61 1017.92 1018.20 1019.23 1020.27 1020.76 1020.80 1021.02 1021.25 1021.41 1021.77 1021.81 1021.60 1021.57 1021.81 1021.95 1022.00
1014.43 1013.92 1013.36 1013.09 1012.61 1011.96 1011.83 1011.50 1011.11 1010.94 1010.72 1010.42 1009.69 1009.49 1009.53 1009.73 1009.93 1009.95 1010.29 1011.13 1012.01 1012.42 1013.41 1014.45 1015.70 1016.15 1016.36 1017.25 1017.27 1017.77 1019.16 1019.78 1020.14 1020.25 1020.68 1020.89 1021.07 1021.35 1021.22 1021.19 1021.34 1021.46 1021.40
1014.41 1013.85 1013.26 1012.62 1012.04 1011.40 1011.01 1010.96 1010.61 1010.39 1010.00 1009.60 1009.00 1008.40 1008.49 1008.74 1008.83 1009.25 1009.29 1009.37 1009.64 1010.48 1011.49 1012.44 1013.38 1014.17 1014.36 1014.93 1016.22 1016.73 1017.93 1019.05 1019.81 1019.55 1019.91 1019.90 1020.07 1020.35 1020.57 1020.80 1020.82 1021.06 1020.92
1013.84 1013.03 1012.43 1011.94 1011.26 1010.71 1010.35 1010.05 1009.57 1009.48 1009.04 1008.69 1008.03 1007.87 1007.60 1007.50 1007.53 1007.93 1008.47 1009.18 1009.17 1008.61 1008.84 1009.77 1010.82 1011.50 1012.79 1012.86 1014.45 1016.01 1016.45 1017.09 1017.52 1018.10 1019.09 1019.70 1019.66 1019.69 1019.64 1020.08 1020.17 1020.29 1020.35
1013.71 1012.84 1012.07 1011.44 1010.60 1009.75 1009.41 1008.78 1008.43 1008.00 1007.63 1007.07 1006.90 1006.61 1006.65 1006.57 1006.30 1006.74 1007.49 1007.99 1008.52 1008.53 1008.25 1008.51 1009.08 1009.84 1010.83 1011.74 1012.35 1013.54 1015.22 1016.48 1017.35 1017.99 1018.51 1019.26 1019.13 1019.31 1019.21 1019.36 1019.67 1019.78 1019.85
1013.45 1012.66 1011.82 1010.65 1009.82 1008.54 1008.21 1007.65 1007.36 1006.83 1006.21 1005.54 1005.38 1005.12 1004.92 1005.20 1005.37 1005.71 1006.57 1006.39 1007.49 1007.54 1008.07 1008.23 1008.87 1009.05 1009.69 1011.01 1011.65 1013.41 1015.01 1016.26 1016.99 1017.40 1018.10 1018.06 1018.64 1018.91 1019.05 1019.06 1019.33 1019.61 1019.54
1012.92 1012.21 1011.06 1010.15 1009.09 1007.86 1006.85 1006.39 1006.10 1005.68 1004.88 1004.20 1003.78 1003.56 1003.12 1003.66 1004.17 1004.58 1005.15 1005.13 1006.29 1006.37 1008.21 1008.44 1009.25 1009.21 1009.56 1010.07 1010.76 1011.49 1013.31 1014.73 1015.66 1016.86 1016.74 1017.32 1018.34 1018.86 1019.05 1018.83 1019.02 1019.24 1019.59
Wind_Speed
9 9 7 7 7 7 6 6 5 5 4 4 3 2 2 2 2 2 3 6 8 6 1 1 2 3 5 5 8 11 8 10 9 6 9 8 9 10 10 9 9 11 11
9 9 9 8 8 7 7 6 5 5 5 4 4 2 2 1 1 0 1 4 8 8 2 1 1 3 5 8 7 5 6 8 6 3 7 8 7 7 6 8 9 10 11
12 11 9 8 8 7 7 6 6 5 5 4 5 4 2 2 2 2 2 2 4 11 10 6 3 3 6 4 6 4 9 8 4 7 9 6 6 7 7 7 10 10 11
13 11 10 9 9 8 8 7 7 6 5 5 5 4 3 3 3 3 3 2 2 2 5 9 9 7 7 4 2 4 8 6 8 6 6 6 9 11 10 9 9 9 10
13 11 9 9 11 9 9 9 8 8 7 6 5 4 3 4 4 3 4 3 2 1 3 6 9 9 4 3 3 5 6 7 7 7 9 8 9 9 9 9 9 8 9
12 10 8 9 9 7 8 8 9 7 7 7 6 5 3 3 3 4 4 4 3 3 2 3 2 2 3 4 4 6 8 8 7 7 8 8 8 8 8 9 9 9 9
12 11 8 9 9 9 9 9 7 9 7 7 7 4 3 4 4 4 4 4 4 3 2 2 1 1 2 3 4 7 9 7 6 6 7 8 8 8 8 8 9 9 9
12 12 11 10 11 8 10 11 11 8 4 9 5 5 4 3 4 5 4 4 5 4 4 3 3 3 2 5 7 11 9 6 5 6 6 7 7 8 8 8 9 9 10
9 10 12 10 12 11 11 11 12 13 7 8 9 4 4 4 6 5 5 5 6 5 4 4 5 4 4 6 7 7 6 6 5 6 7 7 7 8 9 9 10 10 10
11 12 12 12 11 10 12 11 11 11 9 8 5 5 3 1 5 4 6 7 6 6 6 5 5 6 6 5 10 7 5 4 5 5 6 7 7 8 8 9 9 9 10
10 11 11 12 11 10 12 14 14 14 9 8 8 4 4 4 4 4 5 6 6 6 5 6 6 6 7 7 6 5 5 5 4 4 4 5 7 8 8 9 9 10 11
5 9 10 10 11 11 12 11 13 15 13 11 9 6 7 6 5 4 3 7 7 6 5 5 6 7 7 6 6 7 4 4 3 2 2 3 4 6 7 8 9 10 10
4 5 9 10 10 11 11 11 11 13 14 11 11 9 8 8 1 4 3 4 4 3 4 6 6 6 7 6 8 9 8 5 3 0 1 1 2 2 3 5 7 8 8
6 5 6 9 11 12 12 12 9 10 12 12 14 10 8 6 4 4 5 6 4 3 4 5 8 7 6 6 8 10 7 7 5 3 3 3 2 3 3 4 5 7 8
7 6 6 7 10 11 11 12 10 11 11 13 13 12 9 7 6 5 4 7 7 6 9 9 5 10 8 6 7 7 4 10 5 5 5 5 5 5 5 4 4 6 7
8 8 6 7 7 10 10 11 10 10 12 11 10 13 12 8 7 6 4 4 3 5 5 4 7 9 10 8 9 6 5 8 7 8 7 7 7 7 6 6 6 6 7
12 9 7 6 6 8 10 10 11 11 13 13 13 14 15 13 9 8 5 4 4 3 2 1 7 10 12 10 8 6 4 6 6 13 12 10 9 9 9 7 7 7 7
11 11 10 7 6 8 9 10 12 11 14 14 14 13 14 9 13 11 9 10 7 6 4 5 5 6 9 11 9 8 5 4 4 10 13 12 12 12 10 9 8 9 8
10 9 10 11 8 6 9 11 12 13 14 15 14 15 15 14 15 12 11 11 8 4 3 4 4 4 3 8 7 5 5 6 5 10 13 13 14 13 11 11 10 10 9
9 9 9 9 11 9 8 10 11 12 14 14 15 16 15 18 18 17 13 15 11 10 7 4 3 7 6 6 7 8 6 5 5 6 10 10 12 14 14 14 12 11 10
10 10 9 9 9 7 7 9 11 12 13 16 16 16 17 19 22 22 15 15 14 13 10 10 6 5 8 7 12 8 7 6 7 6 7 7 6 7 8 12 10 12 9
12 11 11 11 11 7 13 17 15 13 14 15 16 16 17 18 21 26 29 28 23 20 17 13 12 12 14 11 10 9 8 5 6 8 7 6 5 5 5 4 9 10 9
14 14 14 14 14 13 18 20 19 11 13 17 17 16 15 14 17 18 26 27 27 31 29 20 20 15 14 16 14 13 13 10 4 6 6 4 5 6 5 5 11 11 11
15 16 16 16 17 14 23 22 21 14 14 17 19 18 18 18 17 17 17 19 21 19 22 15 18 14 10 14 16 13 14 9 5 5 4 4 3 3 3 2 10 12 13
15 16 18 20 19 19 26 25 20 13 15 18 17 18 18 18 22 24 19 20 20 19 18 22 16 17 21 26 19 11 11 10 4 5 7 4 2 1 1 3 4 12 10
18 16 19 19 23 23 29 30 25 12 15 14 14 17 22 23 25 26 21 19 21 19 13 13 10 13 17 21 27 15 13 12 5 4 7 7 4 3 2 2 2 2 1
Wind_Direction
186 188 189 184 179 177 175 176 175 170 160 147 137 118 75 38 36 35 72 12 7 0 7 131 164 151 121 127 105 106 105 96 87 76 81 63 59 55 58 62 55 57 45
187 187 184 185 184 182 176 180 172 169 166 152 144 129 106 91 53 41 77 91 36 17 32 69 148 158 176 116 102 114 134 109 87 88 95 66 55 60 61 49 48 40 33
191 187 186 184 184 174 173 169 166 169 162 158 154 154 147 145 134 143 152 149 115 48 40 23 321 109 108 150 114 147 119 91 97 101 76 58 54 64 51 61 49 27 20
197 191 187 185 177 171 173 173 172 171 174 175 162 158 152 153 145 140 139 145 77 97 64 28 37 63 65 80 174 110 86 91 70 66 60 61 54 46 39 34 28 21 22
203 191 191 185 175 176 182 177 174 176 172 174 160 151 159 159 171 154 140 122 98 176 111 63 58 40 28 34 91 113 108 88 81 71 55 48 44 38 31 23 18 14 14
203 200 194 183 176 182 184 182 175 180 171 161 155 152 161 155 182 163 156 151 138 155 146 154 176 63 6 104 118 131 121 99 71 58 48 39 35 30 23 15 9 5 2
200 207 198 183 175 187 189 182 171 171 170 149 134 142 155 178 188 172 171 152 161 166 153 155 161 141 89 120 106 125 98 97 76 66 50 35 25 19 12 3 360 0 358
198 198 201 191 182 185 189 184 175 166 171 179 174 147 170 182 201 194 174 171 167 167 164 182 153 182 214 75 63 64 72 69 63 51 43 35 26 21 13 8 4 1 0
214 211 210 203 187 188 187 186 187 182 171 193 224 162 155 207 142 175 195 188 177 183 165 164 168 172 201 110 106 80 71 63 50 47 34 29 29 25 18 12 7 4 2
231 210 218 219 202 192 192 187 187 194 184 182 209 256 258 94 174 165 202 198 199 194 174 175 169 178 177 133 97 105 109 93 61 43 32 27 26 26 21 11 5 1 360
234 242 218 226 215 211 203 187 186 193 202 189 199 152 213 231 254 170 161 187 208 206 181 174 172 180 186 157 141 131 130 115 101 66 43 30 27 20 14 6 3 1 359
216 234 237 227 230 221 217 205 197 195 197 203 198 198 200 179 192 193 141 160 179 185 177 182 184 182 180 178 130 142 133 116 121 85 62 40 30 22 11 5 0 356 351
266 238 234 228 230 229 224 216 205 205 205 203 195 200 209 227 218 202 141 144 164 137 178 193 193 187 181 165 160 176 159 139 144 212 294 349 5 14 5 351 349 341 338
310 293 250 240 235 232 227 225 218 212 211 210 211 209 204 209 185 201 173 147 157 151 177 159 187 185 184 186 171 186 171 160 173 214 233 258 273 293 307 321 327 330 335
313 303 286 251 245 241 230 227 221 221 220 213 212 208 205 199 181 200 229 182 151 176 199 187 167 187 181 168 172 198 176 163 191 230 236 253 262 260 277 296 310 316 321
313 311 288 277 239 244 237 228 233 226 222 221 219 213 211 201 194 190 193 203 226 162 181 147 192 170 175 173 174 200 177 154 213 223 238 251 257 260 277 288 291 301 317
339 329 299 281 270 255 240 234 232 233 232 229 224 220 214 203 199 191 185 197 202 198 147 30 166 163 173 174 164 197 192 195 206 208 216 224 232 247 261 268 278 291 301
344 338 326 292 271 266 262 241 237 235 237 230 229 225 219 205 205 197 189 196 195 205 157 159 172 163 184 181 179 185 192 213 227 218 220 225 224 230 243 255 269 279 291
336 340 334 320 303 283 268 262 248 244 240 240 233 229 221 208 209 204 198 193 187 165 212 150 157 165 167 170 177 177 192 197 218 229 228 233 237 236 239 249 265 272 276
323 327 325 315 312 301 280 268 261 252 249 245 236 236 228 222 210 207 205 198 181 172 172 174 148 173 166 176 170 181 194 208 210 207 226 231 221 233 243 251 254 257 256
314 313 310 303 298 292 287 280 271 260 251 251 243 233 234 231 227 215 197 200 192 186 182 184 186 176 181 163 191 173 195 178 210 197 205 206 206 223 237 243 243 239 242
306 301 300 299 295 286 280 274 269 270 263 255 253 243 238 233 233 224 221 206 198 189 193 192 192 206 197 180 175 172 171 163 208 199 203 214 178 217 229 227 238 253 273
307 300 298 296 288 286 283 277 265 256 256 260 255 252 247 237 227 221 225 225 216 208 200 192 200 201 191 180 164 174 183 184 184 150 176 210 200 221 209 227 247 263 279
301 300 295 291 286 280 281 279 271 257 253 251 252 248 245 244 229 219 214 215 223 217 215 203 211 199 197 176 175 176 178 162 87 128 142 196 181 222 194 237 270 278 278
290 291 290 288 282 278 277 275 272 261 254 251 250 245 242 245 241 219 215 215 217 225 220 215 205 175 169 172 164 144 165 165 168 181 183 158 170 188 353 282 270 271 257
285 285 283 281 282 281 276 272 267 258 255 254 249 247 235 238 237 226 214 210 218 211 203 202 197 187 180 174 171 171 165 177 149 160 177 149 166 139 203 182 209 206 166